This is the latest recevied weather packets stored in our database for station/object N6RDS-8. If no packets are shown the sender has not sent any weather packets the latest 10 day(s).
| Time | Temp. | Humidity | Pressure | Rain* | Wind** | Luminosity | Snow |
|---|---|---|---|---|---|---|---|
| 1778140106 | 8.33° C | 51% | 1019.7 hPa | 0 mm | - | 0 W/m² | - |
| 1778139804 | 8.33° C | 51% | 1019.9 hPa | 0 mm | - | 0 W/m² | - |
| 1778139501 | 8.33° C | 51% | 1020 hPa | 0 mm | - | 0 W/m² | - |
| 1778139197 | 8.89° C | 50% | 1019.9 hPa | 0 mm | - | 0 W/m² | - |
| 1778138895 | 8.89° C | 48% | 1019.7 hPa | 0 mm | - | 0 W/m² | - |
| 1778138592 | 9.44° C | 49% | 1020 hPa | 0 mm | - | 0 W/m² | - |
| 1778138289 | 9.44° C | 48% | 1019.9 hPa | 0 mm | - | 0 W/m² | - |
| 1778137986 | 10° C | 46% | 1020 hPa | 0 mm | - | 0 W/m² | - |
| 1778137682 | 10.56° C | 44% | 1020 hPa | 0 mm | - | 0 W/m² | - |
| 1778137380 | 11.67° C | 43% | 1019.9 hPa | 0 mm | - | 0 W/m² | - |
| 1778137076 | 11.11° C | 42% | 1020 hPa | 0 mm | - | 0 W/m² | - |
| 1778136773 | 10.56° C | 43% | 1019.9 hPa | 0 mm | - | 0 W/m² | - |
| 1778136470 | 11.11° C | 42% | 1019.9 hPa | 0 mm | - | 0 W/m² | - |
| 1778136169 | 11.67° C | 41% | 1019.9 hPa | 0 mm | - | 0 W/m² | - |
| 1778135866 | 12.78° C | 44% | 1019.8 hPa | 0 mm | - | 0 W/m² | - |
| 1778135563 | 12.78° C | 40% | 1019.9 hPa | 0 mm | - | 0 W/m² | - |
| 1778135260 | 12.78° C | 39% | 1019.9 hPa | 0 mm | - | 0 W/m² | - |
| 1778134957 | 12.78° C | 39% | 1019.8 hPa | 0 mm | - | 0 W/m² | - |
| 1778134655 | 12.78° C | 39% | 1019.8 hPa | 0 mm | - | 0 W/m² | - |
| 1778134353 | 12.78° C | 39% | 1019.7 hPa | 0 mm | - | 0 W/m² | - |
| 1778134051 | 12.78° C | 39% | 1019.8 hPa | 0 mm | - | 0 W/m² | - |
| 1778133747 | 12.78° C | 39% | 1019.7 hPa | 0 mm | - | 0 W/m² | - |
| 1778133443 | 12.78° C | 38% | 1019.8 hPa | 0 mm | - | 0 W/m² | - |
| 1778133139 | 13.33° C | 38% | 1020 hPa | 0 mm | - | 0 W/m² | - |
| 1778132835 | 12.78° C | 38% | 1019.9 hPa | 0 mm | - | 0 W/m² | - |
* Rain latest hour (hover to see other rain measurements)
** Current wind speed in m/s (hover to see current wind gust speed)